TimeEST,TemperatureF,Dew PointF,Humidity,Sea Level PressureIn,VisibilityMPH,Wind Direction,Wind SpeedMPH,Gust SpeedMPH,PrecipitationIn,Events,Conditions,WindDirDegrees,DateUTC
12:53 AM,73.9,63.0,68,30.04,10.0,NNE,6.9,-,N/A,,Mostly Cloudy,30,2012-11-18 05:53:00
1:53 AM,75.0,63.0,66,30.03,10.0,ENE,10.4,-,N/A,,Scattered Clouds,70,2012-11-18 06:53:00
2:53 AM,70.0,64.9,84,30.03,10.0,NNW,9.2,-,N/A,,Scattered Clouds,340,2012-11-18 07:53:00
3:53 AM,68.0,64.9,90,30.02,10.0,NNW,6.9,-,N/A,,Partly Cloudy,340,2012-11-18 08:53:00
4:53 AM,68.0,64.9,90,30.03,10.0,NNW,6.9,-,N/A,,Partly Cloudy,340,2012-11-18 09:53:00
5:53 AM,68.0,64.9,90,30.03,10.0,North,4.6,-,N/A,,Scattered Clouds,10,2012-11-18 10:53:00
6:53 AM,70.0,66.0,87,30.05,10.0,NNW,6.9,-,N/A,,Mostly Cloudy,330,2012-11-18 11:53:00
7:53 AM,70.0,66.0,87,30.07,10.0,NNW,6.9,-,0.00,Rain,Light Rain,340,2012-11-18 12:53:00
8:53 AM,77.0,66.0,69,30.08,10.0,North,15.0,18.4,0.00,,Scattered Clouds,360,2012-11-18 13:53:00
9:53 AM,73.9,66.0,76,30.10,10.0,North,15.0,-,N/A,,Scattered Clouds,360,2012-11-18 14:53:00
10:53 AM,79.0,64.0,60,30.08,10.0,NNE,17.3,-,N/A,,Scattered Clouds,20,2012-11-18 15:53:00
11:53 AM,80.1,63.0,56,30.06,10.0,NNE,16.1,25.3,N/A,,Scattered Clouds,30,2012-11-18 16:53:00
12:53 PM,81.0,64.0,56,30.05,10.0,NE,15.0,23.0,N/A,,Scattered Clouds,50,2012-11-18 17:53:00
1:53 PM,80.1,64.0,58,30.03,10.0,NE,19.6,-,N/A,,Mostly Cloudy,40,2012-11-18 18:53:00
2:53 PM,79.0,64.0,60,30.03,10.0,NNE,16.1,25.3,N/A,,Scattered Clouds,30,2012-11-18 19:53:00
3:53 PM,78.1,64.0,62,30.04,10.0,NNE,18.4,-,N/A,,Scattered Clouds,30,2012-11-18 20:53:00
4:53 PM,75.9,64.0,67,30.05,10.0,NNE,15.0,-,N/A,,Scattered Clouds,30,2012-11-18 21:53:00
5:53 PM,75.0,64.0,69,30.06,10.0,North,13.8,-,N/A,,Scattered Clouds,10,2012-11-18 22:53:00
6:53 PM,73.0,64.0,73,30.07,10.0,North,12.7,19.6,N/A,,Scattered Clouds,360,2012-11-18 23:53:00
7:53 PM,71.1,64.0,78,30.09,10.0,North,11.5,-,N/A,,Partly Cloudy,350,2012-11-19 00:53:00
8:53 PM,70.0,64.0,81,30.11,10.0,North,11.5,-,N/A,,Partly Cloudy,350,2012-11-19 01:53:00
9:53 PM,69.1,64.0,84,30.11,10.0,North,10.4,-,N/A,,Scattered Clouds,360,2012-11-19 02:53:00
10:15 PM,69.8,64.4,83,30.11,10.0,North,5.8,-,N/A,,Mostly Cloudy,10,2012-11-19 03:15:00
10:53 PM,69.1,64.0,84,30.11,10.0,North,6.9,-,N/A,,Overcast,350,2012-11-19 03:53:00
11:03 PM,69.8,64.4,83,30.11,10.0,NNW,8.1,-,N/A,,Overcast,340,2012-11-19 04:03:00
11:53 PM,68.0,64.0,87,30.10,10.0,North,10.4,-,N/A,,Mostly Cloudy,350,2012-11-19 04:53:00